STARLINK C (44237 NORAD) Tracking and Keplerian Element Data

This shows tracking and keplerian element data for the satellite.

Feedback or suggestion? Click here.




ElementValue
Catalog44237
NameSTARLINK C
Epoch Orbit466
Epoch Day173.98914657
Epoch Year2019
RAAN37.9986
Inclination53.0014
Eccentricity0.0002583
Argument of Perigee123.0503
Mean Anonmoly237.082
Mean Motion15.05219996
Decay Rate2.033E-05
L11 44237U 19029C 19173.98914657 .00002033 00000-0 16017-3 0 9997
L22 44237 53.0014 37.9986 0002583 123.0503 237.0820 15.05219996 4664

Live tracking and technical data element details for STARLINK C (NORAD 44237). STARLINK C can be tracked NOW for your location showing map with azimuth and elevation plus other details from your city location.

Track the satellite on the map from your city or location and see movement details for azimuth, elevation, latitude, longitude, range, height, and movement on the map or in text.







IsCatalogInMostPopularTable: catalog: 44237, numindb: 40
Update: records affected: 1



GetName: 44237 STARLINK C

Hit Count: updated at: Mon, 15 Jul 2019 22:31:04 GMT